Weather History for Jamestown, ND

Change the Weather History Date:

Sunday, December 9, 2012

  Actual Average Record
Temperature  
Mean Temperature 2 °F 16 °F  
Max Temperature 12 °F 25 °F 63 °F (1939)
Min Temperature -8 °F 7 °F -30 °F (1927)
Degree Days  
Heating Degree Days 63 49  
Month to date heating degree days 364 428  
Since 1 July heating degree days 2419 2512  
Cooling Degree Days 0 0  
Month to date cooling degree days 0 0  
Year to date cooling degree days 575 446  
Moisture  
Dew Point -2 °F    
Average Humidity 78    
Maximum Humidity 87    
Minimum Humidity 68    
Precipitation  
Precipitation 0.01 in 0.01 in 0.07 in (1961)
Month to date precipitation 0.04 0.12  
Year to date precipitation 12.85 18.49  
Sea Level Pressure  
Sea Level Pressure 30.25 in    
Wind  
Wind Speed 16 mph (North)    
Max Wind Speed 31 mph    
Max Gust Speed 40 mph    
Visibility 6 miles    
Events Snow    
T = Trace of Precipitation, MM = Missing Value Source: NWS Daily Summary

Daily Weather History Graph

Daily Weather History Graph

Search for Another Location

Airport:

Trip Planner

Search our weather history database for the weather conditions in past years. The results will help you decide how hot, cold, wet, or windy it might be!

Date:

Astronomy

Dec. 09, 2012 Rise Set
Actual Time 8:08 AM CST 4:45 PM CST
Civil Twilight 7:33 AM CST 5:20 PM CST
Nautical Twilight 6:55 AM CST 5:59 PM CST
Astronomical Twilight 6:18 AM CST 6:36 PM CST
Moon 3:31 AM CST (12/9) 2:03 PM CST (12/9)
Length of Visible Light 9h 47m
Length of Day
8h 37m
Waning Crescent, 18% of the Moon is Illuminated
Dec 9
Waning Crescent
Dec 13
New
Dec 19
First Quarter
Dec 28
Full
Jan 4
Last Quarter

Hourly Weather History & Observations

Time (CST) Temp. Windchill Dew Point Humidity Pressure Visibility Wind Dir Wind Speed Gust Speed Precip Events Conditions
12:59 AM 10.4 °F -9.1 °F 6.8 °F 85% 30.05 in 2.0 mi NNE 21.9 mph - 0.00 in Snow Light Snow
1:34 AM 10.4 °F -9.1 °F 6.8 °F 85% 30.05 in 2.0 mi North 21.9 mph 31.1 mph 0.00 in Snow Light Snow
1:46 AM 10.4 °F -9.5 °F 5.0 °F 79% 30.06 in 1.8 mi North 23.0 mph 31.1 mph 0.00 in Snow Light Snow
1:56 AM 10.0 °F -10.4 °F 5.0 °F 80% 30.14 in 1.5 mi North 24.2 mph 33.4 mph 0.00 in Snow Light Snow
2:56 AM 8.1 °F -13.8 °F 3.9 °F 83% 30.17 in 1.5 mi North 26.5 mph 31.1 mph 0.01 in Snow Light Snow
3:38 AM 6.8 °F -15.9 °F 1.4 °F 79% 30.10 in 2.0 mi North 27.6 mph 34.5 mph 0.00 in Snow Blowing Snow
3:56 AM 7.0 °F -14.5 °F 1.9 °F 80% 30.19 in 2.5 mi North 24.2 mph 34.5 mph 0.00 in Snow Blowing Snow
4:03 AM 6.8 °F -16.2 °F 1.4 °F 79% 30.11 in 3.0 mi North 28.8 mph 33.4 mph N/A Snow Blowing Snow
4:12 AM 6.8 °F -14.7 °F 1.4 °F 79% 30.11 in 2.0 mi North 24.2 mph 35.7 mph 0.00 in Snow Light Snow
4:22 AM 6.8 °F -15.5 °F -0.4 °F 72% 30.12 in 3.0 mi North 26.5 mph - 0.00 in Snow Light Snow
4:28 AM 5.0 °F -17.9 °F -0.4 °F 78% 30.12 in 2.5 mi North 26.5 mph - 0.00 in Snow Light Snow
4:44 AM 5.0 °F -17.9 °F -0.4 °F 78% 30.13 in 1.8 mi North 26.5 mph - 0.00 in Snow Light Snow
4:56 AM 5.0 °F -17.9 °F -0.9 °F 76% 30.23 in 1.8 mi North 26.5 mph 34.5 mph 0.00 in Snow Light Snow
5:16 AM 3.2 °F -20.3 °F -2.2 °F 78% 30.14 in 2.5 mi North 26.5 mph 35.7 mph 0.00 in Snow Light Snow
5:36 AM 3.2 °F -19.9 °F -4.0 °F 72% 30.16 in 5.0 mi North 25.3 mph 39.1 mph 0.00 in Snow Blowing Snow
5:56 AM 3.9 °F -18.5 °F -5.1 °F 66% 30.27 in 7.0 mi North 24.2 mph 33.4 mph 0.00 in   Overcast
6:56 AM 1.9 °F -22.0 °F -2.9 °F 80% 30.31 in 5.0 mi North 26.5 mph 34.5 mph N/A   Haze
7:04 AM 1.4 °F -21.9 °F -2.2 °F 85% 30.20 in 5.0 mi North 24.2 mph 34.5 mph N/A   Haze
7:56 AM 3.0 °F -19.7 °F -2.0 °F 80% 30.34 in 5.0 mi North 24.2 mph 31.1 mph N/A Snow Blowing Snow
8:56 AM 1.9 °F -18.7 °F -2.0 °F 83% 30.36 in 4.0 mi North 18.4 mph 28.8 mph 0.00 in   Overcast
9:56 AM 1.0 °F -19.9 °F -5.1 °F 75% 30.40 in 6.0 mi North 18.4 mph - 0.00 in   Haze
10:27 AM 1.4 °F -20.5 °F -5.8 °F 72% 30.29 in 9.0 mi North 20.7 mph - N/A   Overcast
10:47 AM 1.4 °F -21.4 °F -5.8 °F 72% 30.30 in 10.0 mi North 23.0 mph - N/A   Scattered Clouds
10:54 AM 1.4 °F -21.4 °F -5.8 °F 72% 30.29 in 10.0 mi North 23.0 mph - N/A   Partly Cloudy
10:56 AM 1.9 °F -20.2 °F -5.1 °F 72% 30.41 in 10.0 mi North 21.9 mph - N/A   Partly Cloudy
11:15 AM 3.2 °F -18.1 °F -4.0 °F 72% 30.30 in 10.0 mi North 20.7 mph - N/A   Mostly Cloudy
11:51 AM 3.2 °F -18.1 °F -4.0 °F 72% 30.29 in 10.0 mi North 20.7 mph - N/A   Scattered Clouds
11:56 AM 3.0 °F -17.8 °F -4.0 °F 73% 30.40 in 10.0 mi North 19.6 mph - N/A   Partly Cloudy
12:56 PM 3.9 °F -17.6 °F -4.0 °F 70% 30.39 in 10.0 mi NNW 21.9 mph - N/A   Clear
1:56 PM 5.0 °F -14.2 °F -2.9 °F 70% 30.37 in 10.0 mi NNW 17.3 mph - N/A   Clear
2:56 PM 5.0 °F -13.6 °F -2.9 °F 70% 30.36 in 10.0 mi NNW 16.1 mph - N/A   Clear
3:56 PM 3.9 °F -15.0 °F -2.9 °F 73% 30.36 in 10.0 mi NNW 16.1 mph - N/A   Clear
4:56 PM 3.0 °F -14.8 °F -4.0 °F 73% 30.38 in 10.0 mi NW 13.8 mph - N/A   Clear
5:56 PM 1.9 °F -14.7 °F -4.0 °F 76% 30.37 in 10.0 mi NW 11.5 mph - N/A   Clear
6:56 PM -0.0 °F -13.0 °F -5.1 °F 79% 30.37 in 10.0 mi NW 6.9 mph - N/A   Clear
7:56 PM -0.9 °F -11.0 °F -5.1 °F 83% 30.33 in 10.0 mi WNW 4.6 mph - N/A   Clear
8:56 PM -0.9 °F - -5.1 °F 83% 30.31 in 10.0 mi Calm Calm - N/A   Clear
9:56 PM -2.9 °F - -7.1 °F 82% 30.30 in 10.0 mi Calm Calm - N/A   Clear
10:56 PM -8.0 °F -16.9 °F -11.9 °F 83% 30.27 in 10.0 mi SSW 3.5 mph - N/A   Clear
11:56 PM -8.0 °F -16.9 °F -13.0 °F 79% 30.24 in 10.0 mi SSW 3.5 mph - N/A   Clear